CAPE
23 0 0 0 0 0 6 54 41 176 104 65 40 100 54 159 129 5 141 185 345 417 462 519 1042 667 516 367 398 308 249 181 99 86 220 318 298 259 241 253 496 883 1069 733 769 679 770 648 472
0 0 0 0 0 0 0 22 101 194 101 47 80 63 58 90 386 348 287 312 348 254 216 607 1075 673 458 389 390 249 243 143 128 219 242 213 243 300 356 596 1137 920 824 765 691 599 539 586 670
0 0 0 1 0 0 0 131 181 160 108 248 237 70 6 227 365 198 120 168 107 232 373 509 757 589 446 440 322 229 232 161 212 225 187 199 233 424 620 873 929 869 855 654 466 314 281 177 262
0 0 0 0 0 0 10 225 323 286 236 204 98 71 0 171 81 101 74 48 85 122 159 870 811 649 439 449 350 255 216 190 239 183 198 191 350 939 845 1102 941 749 565 418 202 16 0 0 147
0 0 0 0 0 0 6 68 134 254 520 427 86 74 63 34 92 38 13 0 35 64 482 598 815 599 481 498 352 277 212 200 244 193 159 234 474 1124 1176 1068 922 673 535 376 172 0 2 400 945
0 0 0 0 0 6 62 54 126 229 286 231 102 61 28 22 3 0 0 0 21 395 521 584 733 594 491 466 332 262 183 207 235 176 117 209 488 1304 1323 1047 889 728 567 358 143 10 399 1136 1343
0 0 0 0 0 0 68 31 89 145 179 188 94 17 0 1 0 0 0 0 179 685 471 370 365 367 504 474 326 246 188 185 240 207 137 154 456 1201 1437 1136 923 742 597 358 238 262 724 1243 1259
0 0 0 0 0 1 28 45 86 93 327 189 49 0 0 0 0 0 0 43 318 415 257 207 187 162 174 240 317 204 152 146 210 141 95 224 333 757 1392 1387 1046 702 455 331 433 530 802 685 1045
0 0 0 0 0 0 19 127 142 171 169 174 150 22 0 0 0 0 0 28 159 324 194 127 81 55 60 91 144 184 135 92 134 135 112 60 0 14 137 585 1009 704 449 298 531 494 589 727 794
0 0 0 0 0 0 4 133 128 111 102 115 95 30 0 0 0 0 0 26 163 269 269 79 22 21 21 155 91 59 13 7 26 36 8 0 0 0 0 123 1132 800 500 498 817 166 1 78 116
0 0 0 0 0 0 16 98 171 84 79 31 31 0 0 0 0 0 0 0 63 338 395 139 43 0 17 65 47 13 0 0 0 0 0 0 0 0 0 0 276 214 393 8 11 0 0 0 22
0 0 0 0 0 0 27 61 290 77 74 27 61 18 0 0 0 0 0 0 16 355 376 187 77 14 0 0 18 1 0 0 0 0 0 0 0 0 0 0 0 24 15 42 43 0 0 0 0
0 0 0 0 0 0 4 74 67 58 157 102 88 22 0 0 0 0 0 0 0 235 264 152 58 26 0 0 0 0 0 0 0 0 0 0 0 0 0 0 0 0 72 32 46 0 0 0 0
0 0 0 0 0 0 6 3 10 109 171 82 60 12 6 0 0 0 0 0 0 76 139 55 35 11 0 0 0 0 0 0 0 0 0 0 87 126 19 0 0 0 11 50 6 0 0 0 0
0 0 0 0 0 0 0 0 0 183 70 48 37 10 15 0 0 0 0 0 0 4 45 1 32 4 0 0 0 0 0 0 0 0 0 79 171 166 60 3 0 1 4 65 2 0 0 0 0
0 0 0 0 0 0 0 7 24 59 62 73 39 32 0 0 0 0 0 0 0 1 0 0 31 0 0 0 0 0 0 0 0 0 39 92 270 342 78 89 0 2 0 0 0 0 0 0 0
0 0 0 0 0 0 0 0 7 21 66 91 89 83 22 0 0 0 0 0 0 0 0 0 37 22 0 59 0 16 2 0 0 69 97 200 564 422 173 5 0 0 0 0 0 0 0 0 0
0 0 0 0 0 0 0 0 2 24 52 97 90 79 58 6 0 0 0 0 0 0 0 0 82 125 162 472 129 218 216 197 112 172 179 337 316 431 67 1 0 0 0 0 0 0 0 0 0
0 0 0 0 0 0 0 0 0 7 52 59 52 46 48 46 0 0 0 0 0 0 0 0 0 0 195 346 464 465 353 332 254 234 305 298 401 503 61 0 0 0 0 0 0 0 0 0 0
0 0 0 0 0 0 0 0 18 1 32 54 45 69 110 109 114 0 0 0 0 0 0 6 26 8 66 379 620 661 533 454 567 285 346 313 307 168 0 0 0 0 0 0 0 0 0 0 0
0 0 0 0 0 0 0 0 3 19 30 45 61 100 147 176 184 63 107 66 28 26 22 73 151 143 142 235 500 587 550 532 585 554 444 401 176 46 0 0 0 0 0 0 0 0 0 0 0
0 0 0 0 0 0 0 0 0 6 30 46 64 88 134 210 230 194 212 263 221 57 163 153 299 267 247 275 557 946 1078 988 519 536 343 357 218 85 33 0 0 0 0 0 0 0 0 0 0
0 0 0 0 0 0 0 0 0 0 0 21 107 151 84 191 216 359 256 449 538 341 339 329 424 388 487 443 508 669 689 459 287 370 457 369 345 231 158 67 22 0 0 0 5 0 0 0 0
0 0 0 0 0 0 0 0 0 0 0 8 81 131 54 138 279 426 278 349 1082 1095 871 809 588 604 597 628 633 718 775 586 555 482 492 407 347 331 246 143 66 35 9 1 8 0 0 4 0
0 0 0 0 0 0 0 0 0 0 0 0 25 108 83 135 405 329 261 387 1058 1789 1793 1373 1033 965 769 783 901 857 867 508 623 392 410 339 286 284 349 213 159 83 58 31 0 0 2 0 1
0 0 0 0 0 0 0 0 0 0 0 0 0 21 106 87 474 426 397 597 988 2034 2044 2000 1691 1531 1104 1023 1088 1018 660 527 440 415 433 357 303 184 174 227 161 104 69 35 21 4 4 0 0
0 0 0 0 0 0 0 0 0 0 0 0 0 7 71 67 397 371 702 1173 1566 2030 2287 2279 1977 1606 1431 1377 1271 1157 505 437 472 344 199 237 194 131 220 99 233 213 191 168 98 28 25 1 1
0 0 0 0 0 0 0 0 0 0 0 0 0 0 10 195 520 721 975 1449 1775 1780 262 0 166 403 676 1063 1032 902 562 344 208 159 194 167 17 0 1 70 242 211 120 60 6 0 0 1 1
0 0 0 0 0 0 0 0 0 0 0 0 0 0 105 288 336 620 611 340 109 2 0 0 1 79 364 340 388 574 409 451 298 99 6 2 1 0 28 90 64 46 60 4 0 0 9 2 0
0 0 0 0 0 0 0 0 0 0 0 0 0 0 54 193 374 238 21 0 8 0 0 0 0 0 1 35 31 16 22 1 0 0 0 0 0 0 0 0 0 0 0 0 0 0 6 0 1
CIN
-617 0 0 0 0 0 -100 -83 -120 -124 -166 -174 -135 -123 -165 -189 -120 -37 -218 -167 -111 -36 -33 -43 -15 -53 -84 -121 -132 -183 -212 -248 -273 -265 -210 -179 -173 -171 -165 -135 -51 -1 0 0 0 0 0 0 0
0 0 0 0 0 0 0 -181 -110 -160 -183 -146 -121 -171 -217 -215 -150 -133 -136 -133 -112 -97 -123 -57 -19 -55 -91 -119 -139 -207 -221 -273 -276 -228 -219 -225 -200 -168 -141 -73 -3 0 0 0 0 0 0 0 0
0 0 0 -126 0 0 0 -105 -170 -174 -170 -121 -127 -178 -86 -201 -156 -186 -238 -199 -238 -146 -81 -64 -47 -65 -112 -125 -177 -224 -233 -277 -263 -259 -271 -255 -222 -153 -102 -48 -19 -1 0 0 0 0 -4 -8 -9
0 0 0 0 0 0 -54 -121 -149 -157 -158 -201 -219 -198 0 -156 -186 -254 -269 -304 -222 -171 -137 -33 -48 -79 -132 -153 -197 -256 -267 -278 -260 -274 -266 -258 -195 -68 -60 -19 -17 -5 0 0 -8 -20 0 0 -31
0 0 0 0 0 0 -87 -152 -175 -142 -173 -181 -206 -236 -200 -180 -235 -264 -283 0 -271 -219 -93 -84 -68 -109 -146 -156 -210 -248 -288 -288 -271 -289 -288 -243 -154 -29 -21 -24 -27 -27 -10 -4 -25 0 -2 -37 -21
0 0 0 0 0 -49 -144 -101 -141 -162 -232 -252 -279 -253 -259 -275 -130 0 0 0 -274 -130 -124 -110 -83 -107 -136 -153 -216 -252 -294 -284 -271 -286 -299 -240 -126 -19 -16 -27 -33 -34 -26 -18 -54 -53 -26 -12 -14
0 0 0 0 0 0 -143 -152 -189 -219 -274 -239 -255 -172 0 -83 0 0 0 0 -222 -82 -130 -159 -163 -175 -149 -165 -231 -280 -307 -296 -264 -269 -287 -255 -133 -33 -15 -28 -37 -40 -37 -29 -54 -39 -10 -1 -1
0 0 0 0 0 -29 -181 -144 -188 -236 -225 -258 -275 0 0 0 0 0 0 -220 -124 -117 -187 -228 -254 -291 -303 -264 -243 -290 -320 -317 -278 -289 -290 -213 -158 -62 -27 -29 -41 -51 -54 -59 -47 -19 -8 -10 -3
0 0 0 0 0 0 -211 -195 -216 -248 -260 -241 -222 -176 0 0 0 0 0 -198 -190 -143 -236 -315 -379 -441 -441 -403 -350 -308 -319 -342 -289 -279 -253 -267 0 -142 -180 -69 -37 -60 -64 -79 -46 -36 -20 -11 -14
0 0 0 0 0 0 -118 -195 -223 -253 -283 -270 -257 -315 0 0 0 0 0 -292 -231 -220 -238 -370 -465 -531 -536 -353 -407 -483 -578 -560 -484 -427 -454 0 0 0 0 -134 -29 -53 -64 -63 -34 -83 -33 -84 -110
0 0 0 0 0 -32 -199 -176 -207 -278 -282 -268 -276 0 0 0 0 0 0 0 -399 -281 -257 -348 -467 0 -585 -466 -557 -642 0 0 0 0 0 0 0 0 0 0 -123 -119 -88 -157 -156 -3 0 0 -158
0 0 0 0 0 -25 -211 -242 -203 -256 -266 -307 -328 -278 0 0 0 0 0 0 -396 -303 -303 -383 -497 -619 0 0 -622 -253 0 0 0 0 0 0 0 0 0 0 0 -186 -145 -133 -127 0 0 0 0
0 0 0 0 0 0 -209 -247 -216 -233 -290 -332 -337 -377 0 0 0 0 0 0 0 -355 -348 -418 -527 -622 0 0 0 0 0 0 0 0 0 0 0 0 0 0 0 0 -213 -165 -124 -14 0 0 0
0 0 0 0 0 0 -148 -219 -193 -266 -317 -345 -301 -198 -96 0 0 0 0 0 0 -417 -405 -489 -539 -604 0 0 0 0 0 0 0 0 0 0 -214 -197 -245 0 0 0 -177 -232 -85 0 0 0 0
0 0 0 0 0 0 0 0 0 -269 -348 -346 -286 -177 -298 0 0 0 0 0 0 -199 -442 -44 -544 -325 0 0 0 0 0 0 0 0 0 -212 -170 -162 -190 -181 0 -150 -170 -143 -74 0 0 0 0
0 0 0 0 0 0 0 -185 -317 -371 -356 -316 -285 -295 0 0 0 0 0 0 0 -197 0 0 -473 0 0 0 0 0 0 0 0 0 -323 -232 -152 -113 -215 -195 0 -59 0 0 0 0 0 0 0
0 0 0 0 0 0 0 0 -282 -365 -322 -332 -276 -272 -325 0 0 0 0 0 0 0 0 0 -589 -406 0 -533 0 -235 -30 0 0 -341 -302 -184 -107 -118 -156 -150 0 0 0 0 0 0 0 0 0
0 0 0 0 0 0 0 0 -76 -380 -331 -344 -303 -319 -333 -382 0 0 0 0 0 0 0 0 -567 -507 -464 -316 -395 -359 -379 -348 -346 -290 -256 -169 -157 -108 -186 -38 0 0 0 0 0 0 0 0 0
0 0 0 0 0 0 0 0 -1 -318 -324 -350 -356 -352 -356 -353 0 0 0 0 0 0 0 0 0 -2 -391 -324 -274 -291 -272 -270 -287 -280 -230 -200 -159 -113 -248 0 0 0 0 0 0 0 0 0 0
0 0 0 0 0 0 0 0 -252 -90 -317 -347 -369 -374 -371 -347 -375 0 0 0 0 0 0 -146 -471 -153 -475 -334 -296 -262 -254 -256 -225 -261 -237 -227 -193 -211 0 0 0 0 0 0 0 0 0 0 0
0 0 0 0 0 0 0 0 -124 -276 -290 -313 -329 -314 -307 -293 -380 -415 -470 -525 -628 -592 -379 -584 -541 -524 -509 -417 -318 -287 -260 -251 -215 -207 -206 -230 -262 -317 -1 0 0 0 0 0 0 0 0 0 0
0 0 0 0 0 0 0 0 0 -100 -298 -283 -314 -332 -325 -305 -305 -376 -391 -463 -511 -485 -562 -597 -504 -469 -455 -419 -283 -187 -148 -160 -234 -207 -264 -225 -274 -297 -330 0 0 0 0 0 0 0 0 0 0
0 0 0 0 0 0 0 0 0 0 0 -304 -322 -290 -383 -316 -335 -336 -401 -401 -418 -489 -509 -531 -464 -448 -432 -379 -304 -249 -207 -236 -288 -266 -211 -226 -253 -275 -267 -264 -305 -5 0 0 -330 -20 -16 0 0
0 0 0 0 0 0 0 0 0 0 0 -137 -282 -293 -395 -382 -364 -306 -395 -503 -433 -439 -410 -397 -439 -449 -408 -375 -375 -291 -240 -231 -187 -202 -187 -202 -216 -229 -228 -240 -291 -320 -111 -122 -324 0 -14 -273 0
0 0 0 0 0 0 0 0 0 0 0 0 -223 -272 -355 -383 -373 -386 -493 -540 -470 -357 -325 -330 -390 -404 -413 -370 -316 -276 -209 -207 -182 -244 -201 -224 -177 -167 -183 -217 -227 -271 -296 -292 0 0 -199 0 -104
0 0 0 0 0 0 0 0 0 0 0 0 0 -265 -290 -402 -369 -440 -520 -463 -416 -331 -310 -285 -320 -296 -334 -283 -248 -227 -233 -203 -201 -206 -279 -248 -256 -156 -156 -188 -219 -250 -262 -250 -265 -255 -276 0 0
0 0 0 0 0 0 0 0 0 0 0 0 0 -419 -357 -444 -500 -523 -522 -430 -378 -333 -282 -244 -230 -240 -215 -194 -151 -130 -238 -232 -215 -237 -244 -210 -174 -126 -86 -192 -160 -179 -173 -148 -168 -200 -151 0 0
0 0 0 0 0 0 0 0 0 0 0 0 0 0 -687 -565 -561 -596 -488 -401 -390 -356 -656 0 -363 -385 -282 -180 -160 -135 -217 -250 -239 -246 -193 -183 -265 0 -105 -202 -151 -159 -162 -172 -115 0 0 0 0
0 0 0 0 0 0 0 0 0 0 0 0 0 0 -622 -629 -693 -600 -572 -656 -733 -148 0 0 -240 -481 -317 -297 -294 -228 -243 -199 -165 -196 -89 -252 -85 0 -155 -153 -181 -200 -161 -36 0 0 -61 -62 0
0 0 0 0 0 0 0 0 0 0 0 0 0 0 -756 -677 -624 -599 -735 -53 -845 0 0 0 0 0 -28 -471 -506 -484 -397 -15 0 0 0 0 0 0 0 0 0 0 0 0 0 -4 -86 0 -67
Wind_Speed
6 5 2 3 4 4 2 2 1 4 1 4 4 2 8 4 1 3 4 6 15 9 7 10 14 14 13 12 11 11 11 11 11 11 12 12 12 12 12 12 11 9 12 12 12 11 11 10 8
4 3 3 2 5 4 3 3 1 0 6 8 7 4 6 3 4 9 5 10 13 9 6 6 15 13 13 11 10 10 10 10 10 11 11 11 11 11 11 11 11 14 15 15 15 14 12 11 10
5 2 3 4 3 4 3 1 8 10 12 3 5 5 4 3 7 6 10 12 10 7 6 8 15 13 13 11 10 9 9 9 10 10 10 10 9 9 10 11 12 13 14 15 15 14 11 10 9
3 3 4 4 2 2 4 8 8 8 1 5 8 6 5 2 8 8 14 13 11 6 5 13 14 14 13 12 10 10 9 9 9 9 9 8 9 9 10 10 11 12 14 15 15 13 12 9 6
4 3 3 1 1 2 6 8 8 6 1 5 3 4 5 3 11 17 15 12 12 8 6 8 14 14 13 11 10 9 9 9 8 8 8 7 8 9 10 10 9 10 13 14 13 11 11 10 6
4 3 4 2 4 5 11 11 6 3 3 6 8 6 3 12 15 13 13 12 11 10 8 7 13 13 12 10 9 8 7 7 7 7 6 7 7 8 8 8 8 8 11 12 11 11 12 11 12
5 4 4 3 4 6 7 8 6 5 6 5 7 5 2 10 8 13 9 8 9 8 8 6 6 10 12 10 9 8 8 7 6 4 3 5 7 6 6 5 6 6 8 9 11 9 12 14 13
5 5 1 4 2 1 9 6 8 6 1 9 10 7 6 9 11 10 9 6 6 7 6 6 6 6 6 6 9 8 7 7 6 5 3 3 5 4 4 3 3 3 4 6 7 7 8 9 12
4 4 2 4 6 5 9 7 6 3 10 3 4 7 7 17 14 11 9 5 4 6 5 5 6 6 6 6 6 8 8 7 7 5 4 2 1 2 3 2 1 1 3 4 5 7 8 10 13
4 4 6 5 4 7 8 11 12 6 10 1 5 11 18 18 16 15 12 10 9 10 9 5 5 6 6 5 4 5 4 3 3 4 3 2 2 2 2 2 4 2 2 6 9 10 10 6 3
5 5 5 6 3 8 10 9 2 15 4 11 19 19 20 18 14 14 12 14 16 10 8 8 6 5 6 5 4 3 2 2 3 5 4 3 2 2 3 1 2 2 4 3 5 5 4 5 4
1 7 4 3 11 13 9 7 6 7 8 15 18 21 20 18 16 14 13 12 10 11 10 9 9 7 6 4 4 4 3 3 3 4 4 2 3 3 3 2 2 2 2 3 3 3 3 5 5
5 4 3 9 9 21 9 5 7 6 10 10 11 16 20 17 17 14 13 9 7 10 10 10 9 8 6 5 4 4 4 4 3 3 4 3 3 3 3 3 3 3 2 1 1 3 2 5 4
3 4 7 3 6 9 12 6 4 2 10 12 14 13 15 17 16 12 8 8 10 11 11 10 11 10 8 6 5 5 4 4 4 4 4 4 3 3 3 4 3 2 3 3 2 3 1 4 4
4 7 6 4 7 4 9 1 5 10 14 15 13 11 9 11 16 17 16 13 15 12 12 13 12 10 10 8 6 5 5 4 5 5 4 6 5 4 2 1 3 3 4 5 4 4 1 4 2
5 5 5 2 8 5 5 12 5 12 16 15 15 13 11 9 18 13 15 15 14 12 14 12 11 10 9 8 7 5 5 5 5 4 5 6 5 5 4 3 3 3 3 4 4 2 4 3 4
7 1 2 2 7 7 4 2 6 9 12 14 15 13 11 10 7 9 15 15 16 14 12 12 11 11 9 7 5 5 6 5 5 3 5 6 6 6 4 4 3 2 2 2 2 2 2 3 3
3 2 4 4 1 4 5 8 11 15 14 16 15 13 11 11 14 11 11 11 12 10 11 10 6 8 8 5 4 2 4 4 4 4 5 6 5 6 4 1 3 4 2 2 1 1 2 3 3
2 2 4 6 8 8 11 7 16 18 14 13 13 13 12 14 9 9 10 12 8 6 8 8 8 6 7 3 4 3 3 2 2 4 5 5 4 4 6 4 4 3 4 3 2 0 2 2 2
3 3 6 9 3 3 3 10 17 19 22 21 18 15 16 12 8 9 9 11 12 14 9 8 9 9 6 4 3 3 3 1 2 2 4 5 6 6 5 5 5 4 2 3 3 3 1 2 3
3 4 4 8 7 2 4 4 9 16 6 13 12 16 15 17 14 11 11 14 11 12 13 12 10 9 6 5 3 3 3 1 1 1 2 4 6 5 5 5 3 4 3 3 4 4 5 3 2
5 8 7 5 3 4 4 5 7 17 21 12 15 17 16 15 12 10 11 9 13 14 9 9 9 8 6 7 4 5 4 4 2 2 2 3 5 5 5 5 5 5 3 5 4 4 4 3 4
9 3 8 5 5 1 2 3 7 9 14 19 18 22 15 15 14 14 15 16 13 10 12 10 9 8 8 7 7 6 5 1 1 0 2 4 5 5 5 5 5 5 4 5 5 3 4 3 3
7 2 5 5 4 1 7 7 7 7 24 24 20 20 17 13 13 14 7 9 8 8 9 10 10 10 8 11 11 9 8 6 2 1 2 3 3 3 4 4 4 5 5 5 5 5 5 5 4
4 6 4 5 4 7 1 5 10 5 10 21 26 24 18 14 14 12 12 12 10 11 11 10 14 12 12 12 9 8 7 6 7 5 1 1 2 3 5 5 6 5 5 6 4 4 5 5 4
4 7 7 3 3 5 3 6 7 5 8 11 16 20 18 11 12 14 15 14 13 13 13 13 10 8 10 9 6 6 6 5 5 4 6 2 3 4 7 5 5 6 4 5 4 3 4 5 6
2 4 6 3 1 2 4 7 9 4 6 8 0 10 14 12 14 14 14 15 14 13 13 11 5 5 4 3 3 4 5 7 6 6 1 1 4 2 6 6 4 4 4 5 3 3 5 4 4
6 4 1 3 3 4 5 4 6 3 3 6 8 5 6 7 10 11 11 11 9 8 9 9 9 7 4 4 3 4 7 5 2 3 5 4 3 4 7 4 3 3 4 3 2 2 2 3 3
5 4 3 3 5 6 4 8 7 7 9 10 10 7 6 7 8 7 7 9 7 10 10 8 8 7 5 4 4 4 4 4 3 4 5 4 4 6 5 3 5 6 6 6 5 5 5 4 4
5 6 8 5 5 4 5 8 3 4 8 11 8 10 10 12 12 9 7 8 7 8 9 7 6 7 4 5 7 6 6 6 5 4 2 3 4 3 6 6 6 5 5 5 4 5 5 4 5
Wind_Direction
141 145 118 45 43 70 53 283 216 152 268 334 102 121 129 3 46 187 83 112 123 129 143 143 141 129 125 124 118 112 104 97 94 92 86 82 78 74 72 74 77 71 77 84 87 91 85 92 113
126 121 39 99 79 54 305 275 61 91 128 105 70 72 50 71 69 118 100 132 131 134 135 141 132 131 129 124 116 110 109 104 100 94 86 80 73 70 73 75 65 70 72 70 70 71 75 79 93
164 193 93 98 107 156 178 86 131 140 158 172 117 68 109 111 111 134 127 125 117 115 131 146 136 133 131 129 126 121 116 111 105 97 91 85 79 74 74 71 69 75 75 74 72 71 71 72 81
154 21 29 82 213 259 123 155 167 146 343 42 104 67 61 183 140 130 134 132 125 125 146 140 138 138 140 142 139 135 127 117 110 101 92 83 82 82 84 76 74 72 73 72 71 63 58 51 56
38 58 61 20 220 152 125 168 158 152 171 124 83 99 89 62 109 130 138 134 142 150 152 141 144 148 150 147 144 140 128 122 118 110 98 85 83 83 87 81 75 72 73 69 65 55 51 50 71
46 95 51 218 249 151 154 167 154 158 156 103 94 89 98 127 137 146 146 147 151 155 146 150 151 150 149 150 146 137 130 128 123 109 95 86 86 82 85 81 73 65 68 72 64 51 50 84 88
126 97 197 246 274 159 164 150 130 162 136 121 128 83 81 148 164 144 135 130 150 156 143 136 141 155 155 155 153 151 150 146 131 120 106 87 84 85 90 83 74 62 64 65 63 53 66 75 91
112 87 245 240 218 189 155 142 127 161 155 116 139 149 188 180 149 120 119 124 144 153 153 148 151 146 149 160 162 159 157 155 156 158 145 105 87 94 85 64 60 50 50 57 60 60 66 87 103
121 60 264 253 135 173 164 113 147 113 136 179 203 130 165 141 128 121 118 117 134 169 173 167 159 161 154 160 173 167 168 171 179 185 194 108 41 351 343 314 278 50 0 16 32 37 60 95 116
109 132 221 212 188 182 157 143 163 135 162 26 103 92 130 141 148 153 162 169 178 188 186 185 169 169 160 166 174 170 190 175 185 201 213 190 212 260 253 256 274 274 335 342 20 13 55 132 136
178 200 195 252 173 100 158 151 174 141 192 180 158 142 149 157 165 166 176 183 185 185 181 180 173 186 176 171 168 182 194 191 204 213 211 224 234 229 225 197 298 346 341 337 33 15 19 102 104
335 248 245 208 194 151 164 148 126 185 184 175 160 149 155 168 172 180 184 178 182 184 186 172 180 178 198 171 178 178 188 205 207 219 224 215 247 235 216 222 210 236 242 275 55 26 28 107 121
195 249 323 298 193 164 158 170 143 211 143 155 153 149 162 173 180 188 194 176 166 179 186 183 178 174 192 195 167 177 207 219 223 224 235 219 250 231 204 227 225 225 211 254 36 63 54 108 109
236 253 278 226 131 144 152 161 118 204 136 157 166 165 161 175 188 182 169 187 186 180 189 181 185 183 170 188 188 189 201 215 213 234 230 230 233 209 175 189 226 248 202 204 120 112 133 151 145
266 351 351 121 139 128 107 351 202 161 160 163 171 176 180 183 182 188 187 181 191 191 183 183 186 180 180 179 191 190 208 202 217 225 199 210 200 196 151 142 234 237 187 172 121 106 83 118 110
31 44 354 324 129 204 116 209 186 175 159 174 178 185 191 195 190 186 187 185 186 184 180 183 188 184 183 178 191 195 204 199 224 215 187 202 202 197 162 172 208 175 172 145 138 189 112 131 163
9 257 282 37 200 146 95 227 181 175 176 185 191 193 194 194 201 192 187 181 180 182 172 178 180 178 177 177 180 184 185 188 200 199 189 193 200 189 179 187 196 180 154 160 163 155 136 154 180
220 10 337 281 352 174 165 226 180 179 190 197 197 198 204 200 205 192 179 180 178 171 170 166 153 151 150 142 144 155 179 171 169 187 190 196 206 194 190 121 160 159 153 208 203 171 163 162 196
128 202 260 255 172 188 201 186 184 184 197 208 204 206 206 214 207 189 181 174 163 158 153 159 147 163 152 157 163 189 172 153 161 202 218 224 199 218 177 180 190 182 176 199 241 305 211 224 179
196 270 289 289 309 146 174 212 191 185 205 202 196 207 207 204 186 189 182 169 175 177 166 164 174 173 181 172 178 154 139 197 175 199 225 202 208 198 194 177 203 197 193 198 194 187 268 284 180
214 210 229 223 329 312 96 354 159 218 250 215 212 221 214 204 193 188 184 186 171 173 181 183 179 180 179 161 128 84 80 80 155 182 239 221 206 195 205 205 200 211 199 215 206 197 185 219 239
275 200 231 260 65 261 134 275 223 203 219 215 216 220 218 208 203 191 184 180 186 192 167 162 171 170 177 180 168 162 179 196 217 210 217 216 212 212 208 217 219 220 213 225 215 182 201 164 241
231 242 213 231 208 86 301 77 263 181 217 226 220 219 212 206 190 189 191 189 190 159 173 164 158 169 185 179 179 175 200 136 80 266 231 232 228 223 224 221 223 226 212 236 237 234 212 203 197
258 306 61 53 109 18 251 152 274 186 207 220 225 221 206 194 187 194 162 134 156 144 143 155 164 192 178 195 194 189 185 169 191 332 319 277 272 255 253 276 268 265 236 252 235 234 239 236 232
89 64 345 342 5 225 255 116 230 261 232 221 214 219 202 191 173 165 152 152 150 156 160 155 184 196 197 205 177 194 185 148 166 157 151 326 329 303 271 238 237 239 231 256 237 235 258 282 261
184 153 152 225 226 251 102 243 253 232 288 235 222 220 199 167 172 167 162 163 163 166 165 180 190 194 195 199 197 177 156 153 189 166 153 228 122 294 297 287 259 252 251 263 275 281 263 259 251
289 209 191 146 40 13 259 277 312 292 355 47 195 165 187 163 158 164 157 158 164 164 175 178 156 110 132 145 176 171 150 169 168 170 214 114 77 297 274 307 306 308 286 278 275 257 268 267 270
172 199 333 14 210 243 275 262 231 275 359 80 57 66 102 131 133 143 152 154 158 139 88 66 97 101 100 117 133 160 173 190 122 131 166 113 72 241 264 270 286 308 324 349 316 295 305 294 295
15 351 356 148 160 184 237 259 217 218 185 143 135 119 124 107 98 102 96 85 85 75 76 84 89 112 116 133 126 108 89 111 117 95 109 167 202 264 280 3 23 17 359 2 359 334 318 327 321
186 226 177 159 250 200 171 267 336 225 153 127 123 125 123 125 116 92 65 88 93 98 96 106 125 140 164 100 75 72 84 95 118 176 152 146 130 106 83 86 69 45 39 34 20 346 334 344 326